Погода в Калпитии

Шри-Ланка     8°13′57″N   79°45′41″E
темп.,
°C
ветер,
м/с
пор.,
м/с
влажн.,
%
обл.,
%
осадки,
мм/ч
давл.,
гПа
погр.,
м
24 мая, вт
вт2423:30+28ююз11128438 0.3 1007914
02:30+28юз11128599 0.1 1006998
05:30+28юз111384100 0.4 10071000
08:30+28юз10128260 0.4 10091015
11:30+28юз10138281 0.4 10091030
14:30+28юз11138269 0.2 1007978
17:30+28юз12138186 0.6 10081019
20:30+28юз121482100 0.4 1010996
25 мая, ср
ср2523:30+28юз111277100 0.5 10111097
02:30+28ююз101180100 0.1 10081003
05:30+28ююз10108095 0.3 10081023
08:30+28юз101179100 0.1 10101047
11:30+28ююз101181100 0.1 1010963
14:30+28ююз101180100 0.1 1008926
17:30+28ююз10118027 0.2 1008911
20:30+28ююз10128099 0.0 1010944
26 мая, чт
чт2623:30+28ююз1012816 0.1 10111008
02:30+28юз1112815 0.1 1008977
05:30+28юз11128119 0.1 10091051
08:30+28юз10118013 0.1 1011976
11:30+28юз10128038 0.1 1010949
14:30+28юз111382100 0.0 1008935
17:30+28юз11138293 0.0 1008976
20:30+28юз111484100 0.0 10091016
27 мая, пт
пт2723:30+28юз111384100 0.1 10101079
02:30+28юз111383100 0.1 10081058
05:30+28юз111280100 0.3 10091020
08:30+28юз11128094 0.1 1010985
11:30+28юз111281100 0.1 1010954
14:30+28юз111281100 0.0 1008987
17:30+28юз11138175 0.0 1007939
20:30+28юз1114830 0.0 10091014
28 мая, сб
сб2823:30+28юз1113820 0.0 10101021
02:30+28юз11138011 0.1 10071055
05:30+28юз11127884 0.1 10081081
08:30+28юз101280100 0.1 10101050
11:30+28юз11128266 0.1 1009998
14:30+28юз101282100 0.1 10071006
17:30+28юз111383100 0.1 1007953
20:30+28ююз1113842 0.0 10091081